This is the latest recevied weather packets stored in our database for station/object AC2VK-1. If no packets are shown the sender has not sent any weather packets the latest 10 day(s).
| Time | Temp. | Humidity | Pressure | Rain* | Wind** | Luminosity | Snow |
|---|---|---|---|---|---|---|---|
| 1777125586 | 16.67° C | 94% | 1012.4 hPa | 0.25 mm | - | - | - |
| 1777124986 | 16.67° C | 94% | 1012.3 hPa | 0.25 mm | - | - | - |
| 1777124386 | 16.11° C | 94% | 1012.2 hPa | 0 mm | - | - | - |
| 1777123786 | 16.11° C | 93% | 1012.3 hPa | 0 mm | - | - | - |
| 1777123186 | 16.11° C | 93% | 1012.3 hPa | 0 mm | - | - | - |
| 1777122586 | 16.11° C | 93% | 1012 hPa | 0 mm | - | - | - |
| 1777121986 | 16.11° C | 93% | 1012 hPa | 0 mm | - | - | - |
| 1777121386 | 16.11° C | 93% | 1011.8 hPa | 0 mm | - | - | - |
| 1777120786 | 16.11° C | 93% | 1012 hPa | 0 mm | - | - | - |
| 1777120186 | 16.11° C | 94% | 1012 hPa | 0.51 mm | - | - | - |
| 1777119586 | 15.56° C | 93% | 1012 hPa | 1.27 mm | - | - | - |
| 1777118986 | 15.56° C | 93% | 1011.9 hPa | 1.52 mm | - | - | - |
| 1777118386 | 15.56° C | 93% | 1011.9 hPa | 1.52 mm | - | - | - |
| 1777117786 | 15.56° C | 92% | 1011.9 hPa | 1.52 mm | - | - | - |
| 1777117186 | 16.11° C | 92% | 1011.9 hPa | 2.03 mm | - | - | - |
| 1777116586 | 16.11° C | 92% | 1012 hPa | 1.52 mm | - | - | - |
| 1777115987 | 16.11° C | 91% | 1012 hPa | 0.76 mm | - | - | - |
| 1777115386 | 16.11° C | 91% | 1011.9 hPa | 0.51 mm | - | - | - |
| 1777114786 | 16.11° C | 90% | 1011.8 hPa | 0.51 mm | - | - | - |
| 1777114186 | 16.11° C | 90% | 1011.7 hPa | 0.51 mm | - | - | - |
| 1777113586 | 16.11° C | 89% | 1011.7 hPa | 0 mm | - | - | - |
| 1777112986 | 16.11° C | 89% | 1011.5 hPa | 0 mm | - | - | - |
| 1777112387 | 16.11° C | 89% | 1011.3 hPa | 0 mm | - | - | - |
| 1777111787 | 16.11° C | 89% | 1011.2 hPa | 0 mm | - | - | - |
| 1777111187 | 16.11° C | 88% | 1011.2 hPa | 0 mm | - | - | - |
* Rain latest hour (hover to see other rain measurements)
** Current wind speed in m/s (hover to see current wind gust speed)